Regional Weather Roundup
Issued by NWS

Home | Current Version | Previous Version | Text Only | Print | Product List | Glossary On
Versions: 1 2 3 4 5 6 7 8 9 10 11 12 13 14 15 16 17 18 19 20 21 22 23 24 25 26 27 28 29 30 31 32 33 34 35 36 37 38 39 40 41 42 43 44 45 46 47 48 49 50
000
ASUS43 KDTX 240110
RWRMI
MICHIGAN HOURLY REGIONAL WEATHER ROUNDUP
NATIONAL WEATHER SERVICE DETROIT/PONTIAC MI
900 PM EDT TUE MAY 23 2017

NOTE: "FAIR" INDICATES FEW OR NO CLOUDS BELOW 12,000 FEET WITH NO
SIGNIFICANT WEATHER AND/OR OBSTRUCTION TO VISIBILITY.

MIZ047>049-052>055-059>063-066>070-074>076-081>083-240200-
SOUTHEAST LOWER MICHIGAN

CITY           SKY/WX    TMP DP  RH WIND       PRES   REMARKS
ADRIAN         PTCLDY    61  52  72 NE8       29.72F
ALMA           LGT RAIN  58  56  95 CALM      29.76S
ANN ARBOR      CLOUDY    61  56  83 NW6       29.72S
BAD AXE        DRIZZLE   57  53  86 CALM      29.78S
CARO           CLOUDY    59  56  89 E3        29.77R
DETROIT CITY   CLOUDY    66  48  52 NE7       29.71F
DETROIT        CLOUDY    66  51  58 N7        29.73R
FLINT          LGT RAIN  60  54  80 N9        29.75F
GROSSE ILE     CLOUDY    66  50  55 CALM      29.70F
HILLSDALE      CLOUDY    59  52  77 NE7       29.72S
HOWELL         CLOUDY    58  55  88 CALM      29.74S

CITY           SKY/WX    TMP DP  RH WIND       PRES   REMARKS
JACKSON        CLOUDY    60  55  83 NE7       29.73S
LAMBERTVILLE   CLOUDY    64  49  60 E3        29.71S
LANSING        CLOUDY    59  55  87 N6        29.74F
LAPEER         LGT RAIN  58  57  94 NW6       29.77F
MASON          CLOUDY    59  57  92 NE3       29.74S
MONROE         PTCLDY    65  49  56 E7        29.72S
MT. CLEMENS    CLOUDY    66  50  55 CALM      29.72S
PONTIAC        CLOUDY    60  55  83 N10       29.72F
PORT HOPE        N/A     57  54  89 W5        29.77R
PORT HURON     CLOUDY    63  46  55 N5        29.75S
TRI CITIES     LGT RAIN  60  56  86 CALM      29.77S
MIDLAND        DRIZZLE   58  57  94 CALM      29.75F
TROY           LGT RAIN  64  52  65 N8        29.75S
SAGINAW HB     DRIZZLE   59  54  82 CALM      29.76S
$$
MIZ043>046-050>051-056>058-064>065-071>073-077>080-240200-
SOUTHWEST LOWER MICHIGAN

CITY           SKY/WX    TMP DP  RH WIND       PRES   REMARKS
BATTLE CREEK   CLOUDY    59  56  89 NE8       29.71F
BENTON HARBOR  CLOUDY    59  55  87 NE3       29.70S
BIG RAPIDS     CLOUDY    58  49  70 CALM      29.74F
COLDWATER      PTCLDY    58  57  95 NE7       29.72S
FREMONT        CLOUDY    58  53  84 NE3       29.73F
HOLLAND        CLOUDY    60  55  83 NE3       29.72F
GRAND RAPIDS   CLOUDY    59  57  93 NE6       29.72F
IONIA          CLOUDY    58  56  94 NE5       29.72F
KALAMAZOO      MOCLDY    59  54  83 CALM      29.72S
LUDINGTON      LGT RAIN  51  51 100 CALM      29.76R
MARSHALL       PTCLDY    59  58  97 CALM      29.72S
MOUNT PLEASANT CLOUDY    59  53  81 CALM      29.75F
MUSKEGON       CLOUDY    60  56  86 NE3       29.72F
SOUTH HAVEN    CLOUDY    60  57  91 CALM      29.71R
$$
MIZ016>042-240200-
NORTHERN LOWER MICHIGAN

CITY           SKY/WX    TMP DP  RH WIND       PRES   REMARKS
ALPENA         CLOUDY    53  49  86 CALM      29.79S
BEAVER ISLAND  CLOUDY    54  44  69 NE5       29.79R
BELLAIRE       RAIN      61  48  63 E6        29.76R
CADILLAC       LGT RAIN  54  53  97 NW3       29.76S
CHARLEVOIX     CLOUDY    56  46  69 CALM      29.80S HAZE
FRANKFORT      LGT RAIN  54  50  88 CALM      29.76S
GAYLORD        CLOUDY    57  49  74 E6        29.77S
GRAYLING       CLOUDY    55  54  97 E3        29.77S
HARBOR SPRINGS CLOUDY    57  43  59 E8        29.77S
HOUGHTON LAKE  LGT RAIN  54  52  93 SE5       29.77S
MANISTEE       LGT RAIN  55  54  94 CALM      29.76S
OSCODA         LGT RAIN  53  51  94 NE5       29.78S
PELLSTON       CLOUDY    58  45  62 SE5       29.78S
ROGERS CITY    CLOUDY    47  45  91 CALM      29.80S
TRAVERSE CITY  LGT RAIN  53  48  83 W3        29.75S
$$
MIZ007>008-015-240200-
EASTERN UPPER MICHIGAN

CITY           SKY/WX    TMP DP  RH WIND       PRES   REMARKS
KINROSS        CLOUDY    51  43  74 NW3       29.80R
MACKINAC ISLAN CLOUDY    49  46  88 NE6       29.79S
NEWBERRY       MOCLDY    51  44  78 N5        29.81R
S. S. MARIE    PTCLDY    55  45  68 W6        29.79S
MUNISING         N/A     41  41 100 NW8       29.85R
$$
MIZ004>006-011>014-085-240200-
CENTRAL UPPER MICHIGAN

CITY           SKY/WX    TMP DP  RH WIND       PRES   REMARKS
MANISTIQUE     CLOUDY    55  44  66 N9        29.79S
ESCANABA       LGT RAIN  51  46  83 N12       29.80R
MENOMINEE      LGT RAIN  52  50  93 N7        29.79S
SAWYER-GWINN   CLOUDY    43  41  93 N8        29.84R
$$
MIZ001>003-009>011-084-240200-
WESTERN UPPER MICHIGAN

CITY           SKY/WX    TMP DP  RH WIND       PRES   REMARKS
IRON MOUNTAIN  CLOUDY    55  41  59 NE9       29.79R
HOUGHTON       CLOUDY    50  42  74 E5        29.86S
COPPER HARBOR    N/A     44  42  93 N7        29.87S
IRONWOOD       CLOUDY    48  45  87 N6        29.87R
$$

ABBREVIATIONS USED IN REMARKS
   TC - TEMPERATURE IN CELSIUS
  WCI - WIND CHILL INDEX
   HX - HEAT INDEX
  VSB - VISIBILITY




USA.gov is the U.S. government's official web portal to all federal, state and local government web resources and services.